owner,sensor,date,latitude,longitude,air_pressure(mBar),qcFlag 
SCCF RECON,ioos:station:SCCF:16:1,2019-04-01T04:15:00Z,26.4345,-81.9647,1017.1,1111122 
SCCF RECON,ioos:station:SCCF:16:1,2019-04-01T05:15:00Z,26.4345,-81.9647,1016.9,1111122 
SCCF RECON,ioos:station:SCCF:16:1,2019-04-01T06:15:00Z,26.4345,-81.9647,1016.5,1111122 
SCCF RECON,ioos:station:SCCF:16:1,2019-04-01T07:15:00Z,26.4345,-81.9647,1016.0,1111122 
SCCF RECON,ioos:station:SCCF:16:1,2019-04-01T08:15:00Z,26.4345,-81.9647,1015.5,1111122 
SCCF RECON,ioos:station:SCCF:16:1,2019-04-01T09:15:00Z,26.4345,-81.9647,1015.6,1111122 
SCCF RECON,ioos:station:SCCF:16:1,2019-04-01T10:15:00Z,26.4345,-81.9647,1016.0,1111122 
SCCF RECON,ioos:station:SCCF:16:1,2019-04-01T11:15:00Z,26.4345,-81.9647,1016.6,1111122 
SCCF RECON,ioos:station:SCCF:16:1,2019-04-01T12:15:00Z,26.4345,-81.9647,1017.3,1111122 
SCCF RECON,ioos:station:SCCF:16:1,2019-04-01T13:15:00Z,26.4345,-81.9647,1017.4,1111122 
SCCF RECON,ioos:station:SCCF:16:1,2019-04-01T14:15:00Z,26.4345,-81.9647,1017.4,1111122 
SCCF RECON,ioos:station:SCCF:16:1,2019-04-01T15:15:00Z,26.4345,-81.9647,1017.3,1111122 
SCCF RECON,ioos:station:SCCF:16:1,2019-04-01T16:15:00Z,26.4345,-81.9647,1017.7,1111122 
SCCF RECON,ioos:station:SCCF:16:1,2019-04-01T17:15:00Z,26.4345,-81.9647,1017.2,1111122 
SCCF RECON,ioos:station:SCCF:16:1,2019-04-01T18:15:00Z,26.4345,-81.9647,1017.4,1111122 
SCCF RECON,ioos:station:SCCF:16:1,2019-04-01T19:15:00Z,26.4345,-81.9647,1017.1,1111122 
SCCF RECON,ioos:station:SCCF:16:1,2019-04-01T20:15:00Z,26.4345,-81.9647,1016.9,1111122 
SCCF RECON,ioos:station:SCCF:16:1,2019-04-01T21:15:00Z,26.4345,-81.9647,1016.4,1111122 
SCCF RECON,ioos:station:SCCF:16:1,2019-04-01T22:15:00Z,26.4345,-81.9647,1015.8,1111122 
SCCF RECON,ioos:station:SCCF:16:1,2019-04-02T04:15:00Z,26.4345,-81.9647,1018.1,1111122 
SCCF RECON,ioos:station:SCCF:16:1,2019-04-02T06:15:00Z,26.4345,-81.9647,1017.4,1111122 
SCCF RECON,ioos:station:SCCF:16:1,2019-04-02T07:15:00Z,26.4345,-81.9647,1016.6,1111122 
SCCF RECON,ioos:station:SCCF:16:1,2019-04-02T08:15:00Z,26.4345,-81.9647,1016.3,1111122 
SCCF RECON,ioos:station:SCCF:16:1,2019-04-02T09:15:00Z,26.4345,-81.9647,1016.3,1111122 
SCCF RECON,ioos:station:SCCF:16:1,2019-04-02T10:15:00Z,26.4345,-81.9647,1016.0,1111122 
SCCF RECON,ioos:station:SCCF:16:1,2019-04-02T11:15:00Z,26.4345,-81.9647,1016.3,1111122 
SCCF RECON,ioos:station:SCCF:16:1,2019-04-02T12:15:00Z,26.4345,-81.9647,1017.3,1111122 
SCCF RECON,ioos:station:SCCF:16:1,2019-04-02T13:15:00Z,26.4345,-81.9647,1017.4,1111122 
SCCF RECON,ioos:station:SCCF:16:1,2019-04-02T14:15:00Z,26.4345,-81.9647,1017.9,1111122 
SCCF RECON,ioos:station:SCCF:16:1,2019-04-02T15:15:00Z,26.4345,-81.9647,1018.4,1111122 
SCCF RECON,ioos:station:SCCF:16:1,2019-04-02T16:15:00Z,26.4345,-81.9647,1018.1,1111122 
SCCF RECON,ioos:station:SCCF:16:1,2019-04-02T17:15:00Z,26.4345,-81.9647,1017.7,1111122 
SCCF RECON,ioos:station:SCCF:16:1,2019-04-02T18:15:00Z,26.4345,-81.9647,1017.3,1111122 
SCCF RECON,ioos:station:SCCF:16:1,2019-04-02T19:15:00Z,26.4345,-81.9647,1017.0,1111122 
SCCF RECON,ioos:station:SCCF:16:1,2019-04-02T20:15:00Z,26.4345,-81.9647,1016.6,1111122 
SCCF RECON,ioos:station:SCCF:16:1,2019-04-02T21:15:00Z,26.4345,-81.9647,1016.5,1111122 
SCCF RECON,ioos:station:SCCF:16:1,2019-04-02T22:15:00Z,26.4345,-81.9647,1016.9,1111122 
SCCF RECON,ioos:station:SCCF:16:1,2019-04-03T04:15:00Z,26.4345,-81.9647,1020.5,1111122 
SCCF RECON,ioos:station:SCCF:16:1,2019-04-03T05:15:00Z,26.4345,-81.9647,1020.5,1111122 
SCCF RECON,ioos:station:SCCF:16:1,2019-04-03T06:15:00Z,26.4345,-81.9647,1020.7,1111122 
SCCF RECON,ioos:station:SCCF:16:1,2019-04-03T07:15:00Z,26.4345,-81.9647,1020.5,1111122 
SCCF RECON,ioos:station:SCCF:16:1,2019-04-03T08:15:00Z,26.4345,-81.9647,1020.2,1111122 
SCCF RECON,ioos:station:SCCF:16:1,2019-04-03T09:15:00Z,26.4345,-81.9647,1020.2,1111122 
SCCF RECON,ioos:station:SCCF:16:1,2019-04-03T10:15:00Z,26.4345,-81.9647,1021.2,1111122 
SCCF RECON,ioos:station:SCCF:16:1,2019-04-03T11:15:00Z,26.4345,-81.9647,1021.6,1111122 
SCCF RECON,ioos:station:SCCF:16:1,2019-04-03T12:15:00Z,26.4345,-81.9647,1022.6,1111122 
SCCF RECON,ioos:station:SCCF:16:1,2019-04-03T13:15:00Z,26.4345,-81.9647,1023.2,1111122 
SCCF RECON,ioos:station:SCCF:16:1,2019-04-03T14:15:00Z,26.4345,-81.9647,1024.0,1111122 
SCCF RECON,ioos:station:SCCF:16:1,2019-04-03T15:15:00Z,26.4345,-81.9647,1023.6,1111122 
SCCF RECON,ioos:station:SCCF:16:1,2019-04-03T16:15:00Z,26.4345,-81.9647,1023.3,1111122 
SCCF RECON,ioos:station:SCCF:16:1,2019-04-03T17:15:00Z,26.4345,-81.9647,1023.0,1111122 
SCCF RECON,ioos:station:SCCF:16:1,2019-04-03T18:15:00Z,26.4345,-81.9647,1022.3,1111122 
SCCF RECON,ioos:station:SCCF:16:1,2019-04-03T19:15:00Z,26.4345,-81.9647,1021.5,1111122 
SCCF RECON,ioos:station:SCCF:16:1,2019-04-03T20:15:00Z,26.4345,-81.9647,1020.8,1111122 
SCCF RECON,ioos:station:SCCF:16:1,2019-04-03T21:15:00Z,26.4345,-81.9647,1020.5,1111122 
SCCF RECON,ioos:station:SCCF:16:1,2019-04-03T22:15:00Z,26.4345,-81.9647,1020.8,1111122 
SCCF RECON,ioos:station:SCCF:16:1,2019-04-04T04:15:00Z,26.4345,-81.9647,1023.3,1111122 
SCCF RECON,ioos:station:SCCF:16:1,2019-04-04T05:15:00Z,26.4345,-81.9647,1023.3,1111122 
SCCF RECON,ioos:station:SCCF:16:1,2019-04-04T06:15:00Z,26.4345,-81.9647,1022.8,1111122 
SCCF RECON,ioos:station:SCCF:16:1,2019-04-04T07:15:00Z,26.4345,-81.9647,1022.3,1111122 
SCCF RECON,ioos:station:SCCF:16:1,2019-04-04T08:15:00Z,26.4345,-81.9647,1021.7,1111122 
SCCF RECON,ioos:station:SCCF:16:1,2019-04-04T09:15:00Z,26.4345,-81.9647,1021.7,1111122 
SCCF RECON,ioos:station:SCCF:16:1,2019-04-04T10:15:00Z,26.4345,-81.9647,1022.0,1111122 
SCCF RECON,ioos:station:SCCF:16:1,2019-04-04T11:15:00Z,26.4345,-81.9647,1022.5,1111122 
SCCF RECON,ioos:station:SCCF:16:1,2019-04-04T12:15:00Z,26.4345,-81.9647,1023.2,1111122 
SCCF RECON,ioos:station:SCCF:16:1,2019-04-04T13:15:00Z,26.4345,-81.9647,1023.2,1111122 
SCCF RECON,ioos:station:SCCF:16:1,2019-04-04T14:15:00Z,26.4345,-81.9647,1022.8,1111122 
SCCF RECON,ioos:station:SCCF:16:1,2019-04-04T15:15:00Z,26.4345,-81.9647,1022.9,1111122 
SCCF RECON,ioos:station:SCCF:16:1,2019-04-04T16:15:00Z,26.4345,-81.9647,1022.5,1111122 
SCCF RECON,ioos:station:SCCF:16:1,2019-04-04T17:15:00Z,26.4345,-81.9647,1021.8,1111122 
SCCF RECON,ioos:station:SCCF:16:1,2019-04-04T18:15:00Z,26.4345,-81.9647,1021.3,1111122 
SCCF RECON,ioos:station:SCCF:16:1,2019-04-04T19:15:00Z,26.4345,-81.9647,1020.8,1111122 
SCCF RECON,ioos:station:SCCF:16:1,2019-04-04T20:15:00Z,26.4345,-81.9647,1019.9,1111122 
SCCF RECON,ioos:station:SCCF:16:1,2019-04-04T21:15:00Z,26.4345,-81.9647,1019.7,1111122 
SCCF RECON,ioos:station:SCCF:16:1,2019-04-04T22:15:00Z,26.4345,-81.9647,1019.6,1111122 
SCCF RECON,ioos:station:SCCF:16:1,2019-04-05T04:15:00Z,26.4345,-81.9647,1020.4,1111122 
SCCF RECON,ioos:station:SCCF:16:1,2019-04-05T05:15:00Z,26.4345,-81.9647,1020.7,1111122 
SCCF RECON,ioos:station:SCCF:16:1,2019-04-05T06:15:00Z,26.4345,-81.9647,1020.7,1111122 
SCCF RECON,ioos:station:SCCF:16:1,2019-04-05T07:15:00Z,26.4345,-81.9647,1019.6,1111122 
SCCF RECON,ioos:station:SCCF:16:1,2019-04-05T08:15:00Z,26.4345,-81.9647,1019.6,1111122 
SCCF RECON,ioos:station:SCCF:16:1,2019-04-05T09:15:00Z,26.4345,-81.9647,1019.1,1111122 
SCCF RECON,ioos:station:SCCF:16:1,2019-04-05T10:15:00Z,26.4345,-81.9647,1018.4,1111122 
SCCF RECON,ioos:station:SCCF:16:1,2019-04-05T11:15:00Z,26.4345,-81.9647,1018.4,1111122 
SCCF RECON,ioos:station:SCCF:16:1,2019-04-05T12:15:00Z,26.4345,-81.9647,1019.0,1111122 
SCCF RECON,ioos:station:SCCF:16:1,2019-04-05T13:15:00Z,26.4345,-81.9647,1019.2,1111122 
SCCF RECON,ioos:station:SCCF:16:1,2019-04-05T14:15:00Z,26.4345,-81.9647,1019.4,1111122 
SCCF RECON,ioos:station:SCCF:16:1,2019-04-05T15:15:00Z,26.4345,-81.9647,1019.7,1111122 
SCCF RECON,ioos:station:SCCF:16:1,2019-04-05T16:15:00Z,26.4345,-81.9647,1019.5,1111122 
SCCF RECON,ioos:station:SCCF:16:1,2019-04-05T17:15:00Z,26.4345,-81.9647,1018.4,1111122 
SCCF RECON,ioos:station:SCCF:16:1,2019-04-05T18:15:00Z,26.4345,-81.9647,1017.9,1111122 
SCCF RECON,ioos:station:SCCF:16:1,2019-04-05T19:15:00Z,26.4345,-81.9647,1017.3,1111122 
SCCF RECON,ioos:station:SCCF:16:1,2019-04-05T20:15:00Z,26.4345,-81.9647,1016.7,1111122 
SCCF RECON,ioos:station:SCCF:16:1,2019-04-05T21:15:00Z,26.4345,-81.9647,1016.5,1111122 
SCCF RECON,ioos:station:SCCF:16:1,2019-04-05T22:15:00Z,26.4345,-81.9647,1016.6,1111122 
SCCF RECON,ioos:station:SCCF:16:1,2019-04-06T04:15:00Z,26.4345,-81.9647,1019.5,1111122 
SCCF RECON,ioos:station:SCCF:16:1,2019-04-06T05:15:00Z,26.4345,-81.9647,1019.2,1111122 
SCCF RECON,ioos:station:SCCF:16:1,2019-04-06T06:15:00Z,26.4345,-81.9647,1018.7,1111122 
SCCF RECON,ioos:station:SCCF:16:1,2019-04-06T07:15:00Z,26.4345,-81.9647,1018.1,1111122 
SCCF RECON,ioos:station:SCCF:16:1,2019-04-06T08:15:00Z,26.4345,-81.9647,1018.1,1111122 
SCCF RECON,ioos:station:SCCF:16:1,2019-04-06T09:15:00Z,26.4345,-81.9647,1017.9,1111122 
SCCF RECON,ioos:station:SCCF:16:1,2019-04-06T10:15:00Z,26.4345,-81.9647,1018.4,1111122 
SCCF RECON,ioos:station:SCCF:16:1,2019-04-06T11:15:00Z,26.4345,-81.9647,1018.9,1111122 
SCCF RECON,ioos:station:SCCF:16:1,2019-04-06T12:15:00Z,26.4345,-81.9647,1019.4,1111122 
SCCF RECON,ioos:station:SCCF:16:1,2019-04-06T13:15:00Z,26.4345,-81.9647,1019.8,1111122 
SCCF RECON,ioos:station:SCCF:16:1,2019-04-06T14:15:00Z,26.4345,-81.9647,1020.2,1111122 
SCCF RECON,ioos:station:SCCF:16:1,2019-04-06T15:15:00Z,26.4345,-81.9647,1019.9,1111122 
SCCF RECON,ioos:station:SCCF:16:1,2019-04-06T16:15:00Z,26.4345,-81.9647,1019.9,1111122 
SCCF RECON,ioos:station:SCCF:16:1,2019-04-06T17:15:00Z,26.4345,-81.9647,1019.0,1111122 
SCCF RECON,ioos:station:SCCF:16:1,2019-04-06T18:15:00Z,26.4345,-81.9647,1018.6,1111122 
SCCF RECON,ioos:station:SCCF:16:1,2019-04-06T19:15:00Z,26.4345,-81.9647,1018.2,1111122 
SCCF RECON,ioos:station:SCCF:16:1,2019-04-06T20:15:00Z,26.4345,-81.9647,1017.6,1111122 
SCCF RECON,ioos:station:SCCF:16:1,2019-04-06T21:15:00Z,26.4345,-81.9647,1017.4,1111122 
SCCF RECON,ioos:station:SCCF:16:1,2019-04-06T22:15:00Z,26.4345,-81.9647,1017.2,1111122 
SCCF RECON,ioos:station:SCCF:16:1,2019-04-07T04:15:00Z,26.4345,-81.9647,1020.1,1111122 
SCCF RECON,ioos:station:SCCF:16:1,2019-04-07T05:15:00Z,26.4345,-81.9647,1019.6,1111122 
SCCF RECON,ioos:station:SCCF:16:1,2019-04-07T06:15:00Z,26.4345,-81.9647,1019.1,1111122 
SCCF RECON,ioos:station:SCCF:16:1,2019-04-07T07:15:00Z,26.4345,-81.9647,1018.9,1111122 
SCCF RECON,ioos:station:SCCF:16:1,2019-04-07T08:15:00Z,26.4345,-81.9647,1018.4,1111122 
SCCF RECON,ioos:station:SCCF:16:1,2019-04-07T09:15:00Z,26.4345,-81.9647,1018.4,1111122 
SCCF RECON,ioos:station:SCCF:16:1,2019-04-07T10:15:00Z,26.4345,-81.9647,1019.0,1111122 
SCCF RECON,ioos:station:SCCF:16:1,2019-04-07T11:15:00Z,26.4345,-81.9647,1019.4,1111122 
SCCF RECON,ioos:station:SCCF:16:1,2019-04-07T12:15:00Z,26.4345,-81.9647,1020.1,1111122 
SCCF RECON,ioos:station:SCCF:16:1,2019-04-07T13:15:00Z,26.4345,-81.9647,1020.7,1111122 
SCCF RECON,ioos:station:SCCF:16:1,2019-04-07T14:15:00Z,26.4345,-81.9647,1020.8,1111122 
SCCF RECON,ioos:station:SCCF:16:1,2019-04-07T15:15:00Z,26.4345,-81.9647,1020.8,1111122 
SCCF RECON,ioos:station:SCCF:16:1,2019-04-07T16:15:00Z,26.4345,-81.9647,1020.4,1111122 
SCCF RECON,ioos:station:SCCF:16:1,2019-04-07T17:15:00Z,26.4345,-81.9647,1019.5,1111122 
SCCF RECON,ioos:station:SCCF:16:1,2019-04-07T18:15:00Z,26.4345,-81.9647,1018.8,1111122 
SCCF RECON,ioos:station:SCCF:16:1,2019-04-07T19:15:00Z,26.4345,-81.9647,1017.9,1111122 
SCCF RECON,ioos:station:SCCF:16:1,2019-04-07T20:15:00Z,26.4345,-81.9647,1017.2,1111122 
SCCF RECON,ioos:station:SCCF:16:1,2019-04-07T21:15:00Z,26.4345,-81.9647,1017.2,1111122 
SCCF RECON,ioos:station:SCCF:16:1,2019-04-07T22:15:00Z,26.4345,-81.9647,1017.4,1111122 
SCCF RECON,ioos:station:SCCF:16:1,2019-04-08T04:15:00Z,26.4345,-81.9647,1018.7,1111122 
SCCF RECON,ioos:station:SCCF:16:1,2019-04-08T05:15:00Z,26.4345,-81.9647,1018.1,1111122 
SCCF RECON,ioos:station:SCCF:16:1,2019-04-08T06:15:00Z,26.4345,-81.9647,1017.1,1111122 
SCCF RECON,ioos:station:SCCF:16:1,2019-04-08T07:15:00Z,26.4345,-81.9647,1017.1,1111122 
SCCF RECON,ioos:station:SCCF:16:1,2019-04-08T08:15:00Z,26.4345,-81.9647,1016.9,1111122 
SCCF RECON,ioos:station:SCCF:16:1,2019-04-08T09:15:00Z,26.4345,-81.9647,1016.8,1111122 
SCCF RECON,ioos:station:SCCF:16:1,2019-04-08T10:15:00Z,26.4345,-81.9647,1016.9,1111122 
SCCF RECON,ioos:station:SCCF:16:1,2019-04-08T11:15:00Z,26.4345,-81.9647,1016.8,1111122 
SCCF RECON,ioos:station:SCCF:16:1,2019-04-08T12:15:00Z,26.4345,-81.9647,1017.1,1111122 
SCCF RECON,ioos:station:SCCF:16:1,2019-04-08T13:15:00Z,26.4345,-81.9647,1017.4,1111122 
SCCF RECON,ioos:station:SCCF:16:1,2019-04-08T14:15:00Z,26.4345,-81.9647,1018.0,1111122 
SCCF RECON,ioos:station:SCCF:16:1,2019-04-08T15:15:00Z,26.4345,-81.9647,1017.7,1111122 
SCCF RECON,ioos:station:SCCF:16:1,2019-04-08T16:15:00Z,26.4345,-81.9647,1017.2,1111122 
SCCF RECON,ioos:station:SCCF:16:1,2019-04-08T17:15:00Z,26.4345,-81.9647,1016.6,1111122 
SCCF RECON,ioos:station:SCCF:16:1,2019-04-08T18:15:00Z,26.4345,-81.9647,1016.3,1111122 
SCCF RECON,ioos:station:SCCF:16:1,2019-04-08T19:15:00Z,26.4345,-81.9647,1015.0,1111122 
SCCF RECON,ioos:station:SCCF:16:1,2019-04-08T20:15:00Z,26.4345,-81.9647,1014.5,1111122 
SCCF RECON,ioos:station:SCCF:16:1,2019-04-08T21:15:00Z,26.4345,-81.9647,1014.1,1111122 
SCCF RECON,ioos:station:SCCF:16:1,2019-04-08T22:15:00Z,26.4345,-81.9647,1014.1,1111122 
SCCF RECON,ioos:station:SCCF:16:1,2019-04-09T04:15:00Z,26.4345,-81.9647,1015.0,1111122 
SCCF RECON,ioos:station:SCCF:16:1,2019-04-09T05:15:00Z,26.4345,-81.9647,1014.5,1111122 
SCCF RECON,ioos:station:SCCF:16:1,2019-04-09T06:15:00Z,26.4345,-81.9647,1013.8,1111122 
SCCF RECON,ioos:station:SCCF:16:1,2019-04-09T07:15:00Z,26.4345,-81.9647,1012.9,1111122 
SCCF RECON,ioos:station:SCCF:16:1,2019-04-09T08:15:00Z,26.4345,-81.9647,1012.0,1111122 
SCCF RECON,ioos:station:SCCF:16:1,2019-04-09T09:15:00Z,26.4345,-81.9647,1011.5,1111122 
SCCF RECON,ioos:station:SCCF:16:1,2019-04-09T10:15:00Z,26.4345,-81.9647,1011.7,1111122 
SCCF RECON,ioos:station:SCCF:16:1,2019-04-09T11:15:00Z,26.4345,-81.9647,1012.2,1111122 
SCCF RECON,ioos:station:SCCF:16:1,2019-04-09T12:15:00Z,26.4345,-81.9647,1012.7,1111122 
SCCF RECON,ioos:station:SCCF:16:1,2019-04-09T13:15:00Z,26.4345,-81.9647,1011.9,1111122 
SCCF RECON,ioos:station:SCCF:16:1,2019-04-09T14:15:00Z,26.4345,-81.9647,1011.4,1111122 
SCCF RECON,ioos:station:SCCF:16:1,2019-04-09T15:15:00Z,26.4345,-81.9647,1011.4,1111122 
SCCF RECON,ioos:station:SCCF:16:1,2019-04-09T16:15:00Z,26.4345,-81.9647,1011.0,1111122 
SCCF RECON,ioos:station:SCCF:16:1,2019-04-09T17:15:00Z,26.4345,-81.9647,1010.7,1111122 
SCCF RECON,ioos:station:SCCF:16:1,2019-04-09T18:15:00Z,26.4345,-81.9647,1010.2,1111122 
SCCF RECON,ioos:station:SCCF:16:1,2019-04-09T19:15:00Z,26.4345,-81.9647,1009.7,1111122 
SCCF RECON,ioos:station:SCCF:16:1,2019-04-09T20:15:00Z,26.4345,-81.9647,1009.3,1111122 
SCCF RECON,ioos:station:SCCF:16:1,2019-04-09T21:15:00Z,26.4345,-81.9647,1008.6,1111122 
SCCF RECON,ioos:station:SCCF:16:1,2019-04-09T22:15:00Z,26.4345,-81.9647,1007.9,1111122 
SCCF RECON,ioos:station:SCCF:16:1,2019-04-10T04:15:00Z,26.4345,-81.9647,1009.6,1111122 
SCCF RECON,ioos:station:SCCF:16:1,2019-04-10T05:15:00Z,26.4345,-81.9647,1009.0,1111122 
SCCF RECON,ioos:station:SCCF:16:1,2019-04-10T06:15:00Z,26.4345,-81.9647,1008.6,1111122 
SCCF RECON,ioos:station:SCCF:16:1,2019-04-10T07:15:00Z,26.4345,-81.9647,1008.1,1111122 
SCCF RECON,ioos:station:SCCF:16:1,2019-04-10T08:15:00Z,26.4345,-81.9647,1007.6,1111122 
SCCF RECON,ioos:station:SCCF:16:1,2019-04-10T09:15:00Z,26.4345,-81.9647,1007.6,1111122 
SCCF RECON,ioos:station:SCCF:16:1,2019-04-10T10:15:00Z,26.4345,-81.9647,1008.1,1111122 
SCCF RECON,ioos:station:SCCF:16:1,2019-04-10T11:15:00Z,26.4345,-81.9647,1008.3,1111122 
SCCF RECON,ioos:station:SCCF:16:1,2019-04-10T12:15:00Z,26.4345,-81.9647,1008.9,1111122 
SCCF RECON,ioos:station:SCCF:16:1,2019-04-10T13:15:00Z,26.4345,-81.9647,1009.2,1111122 
SCCF RECON,ioos:station:SCCF:16:1,2019-04-10T14:15:00Z,26.4345,-81.9647,1009.2,1111122 
SCCF RECON,ioos:station:SCCF:16:1,2019-04-10T15:15:00Z,26.4345,-81.9647,1010.1,1111122 
SCCF RECON,ioos:station:SCCF:16:1,2019-04-10T16:15:00Z,26.4345,-81.9647,1009.7,1111122 
SCCF RECON,ioos:station:SCCF:16:1,2019-04-10T17:15:00Z,26.4345,-81.9647,1008.9,1111122 
SCCF RECON,ioos:station:SCCF:16:1,2019-04-10T18:15:00Z,26.4345,-81.9647,1008.3,1111122 
SCCF RECON,ioos:station:SCCF:16:1,2019-04-10T19:15:00Z,26.4345,-81.9647,1007.7,1111122 
SCCF RECON,ioos:station:SCCF:16:1,2019-04-10T20:15:00Z,26.4345,-81.9647,1007.3,1111122 
SCCF RECON,ioos:station:SCCF:16:1,2019-04-10T21:15:00Z,26.4345,-81.9647,1007.4,1111122 
SCCF RECON,ioos:station:SCCF:16:1,2019-04-10T22:15:00Z,26.4345,-81.9647,1007.4,1111122 
SCCF RECON,ioos:station:SCCF:16:1,2019-04-11T04:15:00Z,26.4345,-81.9647,1009.6,1111122 
SCCF RECON,ioos:station:SCCF:16:1,2019-04-11T05:15:00Z,26.4345,-81.9647,1009.6,1111122 
SCCF RECON,ioos:station:SCCF:16:1,2019-04-11T06:15:00Z,26.4345,-81.9647,1009.3,1111122 
SCCF RECON,ioos:station:SCCF:16:1,2019-04-11T07:15:00Z,26.4345,-81.9647,1008.9,1111122 
SCCF RECON,ioos:station:SCCF:16:1,2019-04-11T08:15:00Z,26.4345,-81.9647,1009.1,1111122 
SCCF RECON,ioos:station:SCCF:16:1,2019-04-11T09:15:00Z,26.4345,-81.9647,1009.6,1111122 
SCCF RECON,ioos:station:SCCF:16:1,2019-04-11T10:15:00Z,26.4345,-81.9647,1009.9,1111122 
SCCF RECON,ioos:station:SCCF:16:1,2019-04-11T11:15:00Z,26.4345,-81.9647,1010.5,1111122 
SCCF RECON,ioos:station:SCCF:16:1,2019-04-11T12:15:00Z,26.4345,-81.9647,1011.2,1111122 
SCCF RECON,ioos:station:SCCF:16:1,2019-04-11T13:15:00Z,26.4345,-81.9647,1011.4,1111122 
SCCF RECON,ioos:station:SCCF:16:1,2019-04-11T14:15:00Z,26.4345,-81.9647,1011.7,1111122 
SCCF RECON,ioos:station:SCCF:16:1,2019-04-11T15:15:00Z,26.4345,-81.9647,1012.0,1111122 
SCCF RECON,ioos:station:SCCF:16:1,2019-04-11T16:15:00Z,26.4345,-81.9647,1011.9,1111122 
SCCF RECON,ioos:station:SCCF:16:1,2019-04-11T17:15:00Z,26.4345,-81.9647,1011.4,1111122 
SCCF RECON,ioos:station:SCCF:16:1,2019-04-11T18:15:00Z,26.4345,-81.9647,1010.9,1111122 
SCCF RECON,ioos:station:SCCF:16:1,2019-04-11T19:15:00Z,26.4345,-81.9647,1010.7,1111122 
SCCF RECON,ioos:station:SCCF:16:1,2019-04-11T20:15:00Z,26.4345,-81.9647,1010.4,1111122 
SCCF RECON,ioos:station:SCCF:16:1,2019-04-11T21:15:00Z,26.4345,-81.9647,1010.5,1111122 
SCCF RECON,ioos:station:SCCF:16:1,2019-04-11T22:15:00Z,26.4345,-81.9647,1010.9,1111122 
SCCF RECON,ioos:station:SCCF:16:1,2019-04-12T04:15:00Z,26.4345,-81.9647,1013.2,1111122 
SCCF RECON,ioos:station:SCCF:16:1,2019-04-12T05:15:00Z,26.4345,-81.9647,1013.2,1111122 
SCCF RECON,ioos:station:SCCF:16:1,2019-04-12T06:15:00Z,26.4345,-81.9647,1013.0,1111122 
SCCF RECON,ioos:station:SCCF:16:1,2019-04-12T07:15:00Z,26.4345,-81.9647,1013.0,1111122 
SCCF RECON,ioos:station:SCCF:16:1,2019-04-12T08:15:00Z,26.4345,-81.9647,1013.1,1111122 
SCCF RECON,ioos:station:SCCF:16:1,2019-04-12T09:15:00Z,26.4345,-81.9647,1012.8,1111122 
SCCF RECON,ioos:station:SCCF:16:1,2019-04-12T10:15:00Z,26.4345,-81.9647,1012.7,1111122 
SCCF RECON,ioos:station:SCCF:16:1,2019-04-12T11:15:00Z,26.4345,-81.9647,1013.3,1111122 
SCCF RECON,ioos:station:SCCF:16:1,2019-04-12T12:15:00Z,26.4345,-81.9647,1013.8,1111122 
SCCF RECON,ioos:station:SCCF:16:1,2019-04-12T13:15:00Z,26.4345,-81.9647,1014.1,1111122 
SCCF RECON,ioos:station:SCCF:16:1,2019-04-12T14:15:00Z,26.4345,-81.9647,1014.5,1111122 
SCCF RECON,ioos:station:SCCF:16:1,2019-04-12T15:15:00Z,26.4345,-81.9647,1014.8,1111122 
SCCF RECON,ioos:station:SCCF:16:1,2019-04-12T16:15:00Z,26.4345,-81.9647,1015.3,1111122 
SCCF RECON,ioos:station:SCCF:16:1,2019-04-12T17:15:00Z,26.4345,-81.9647,1014.6,1111122 
SCCF RECON,ioos:station:SCCF:16:1,2019-04-12T18:15:00Z,26.4345,-81.9647,1014.1,1111122 
SCCF RECON,ioos:station:SCCF:16:1,2019-04-12T19:15:00Z,26.4345,-81.9647,1014.0,1111122 
SCCF RECON,ioos:station:SCCF:16:1,2019-04-12T20:15:00Z,26.4345,-81.9647,1013.5,1111122 
SCCF RECON,ioos:station:SCCF:16:1,2019-04-12T21:15:00Z,26.4345,-81.9647,1013.2,1111122 
SCCF RECON,ioos:station:SCCF:16:1,2019-04-12T22:15:00Z,26.4345,-81.9647,1013.1,1111122 
SCCF RECON,ioos:station:SCCF:16:1,2019-04-13T04:15:00Z,26.4345,-81.9647,1015.3,1111122 
SCCF RECON,ioos:station:SCCF:16:1,2019-04-13T05:15:00Z,26.4345,-81.9647,1015.1,1111122 
SCCF RECON,ioos:station:SCCF:16:1,2019-04-13T06:15:00Z,26.4345,-81.9647,1014.6,1111122 
SCCF RECON,ioos:station:SCCF:16:1,2019-04-13T07:15:00Z,26.4345,-81.9647,1013.8,1111122 
SCCF RECON,ioos:station:SCCF:16:1,2019-04-13T08:15:00Z,26.4345,-81.9647,1014.0,1111122 
SCCF RECON,ioos:station:SCCF:16:1,2019-04-13T09:15:00Z,26.4345,-81.9647,1013.5,1111122 
SCCF RECON,ioos:station:SCCF:16:1,2019-04-13T10:15:00Z,26.4345,-81.9647,1013.7,1111122 
SCCF RECON,ioos:station:SCCF:16:1,2019-04-13T11:15:00Z,26.4345,-81.9647,1014.3,1111122 
SCCF RECON,ioos:station:SCCF:16:1,2019-04-13T12:15:00Z,26.4345,-81.9647,1014.8,1111122 
SCCF RECON,ioos:station:SCCF:16:1,2019-04-13T13:15:00Z,26.4345,-81.9647,1014.7,1111122 
SCCF RECON,ioos:station:SCCF:16:1,2019-04-13T14:15:00Z,26.4345,-81.9647,1015.1,1111122 
SCCF RECON,ioos:station:SCCF:16:1,2019-04-13T15:15:00Z,26.4345,-81.9647,1015.6,1111122 
SCCF RECON,ioos:station:SCCF:16:1,2019-04-13T16:15:00Z,26.4345,-81.9647,1015.3,1111122 
SCCF RECON,ioos:station:SCCF:16:1,2019-04-13T17:15:00Z,26.4345,-81.9647,1014.6,1111122 
SCCF RECON,ioos:station:SCCF:16:1,2019-04-13T18:15:00Z,26.4345,-81.9647,1014.1,1111122 
SCCF RECON,ioos:station:SCCF:16:1,2019-04-13T19:15:00Z,26.4345,-81.9647,1013.6,1111122 
SCCF RECON,ioos:station:SCCF:16:1,2019-04-13T20:15:00Z,26.4345,-81.9647,1012.9,1111122 
SCCF RECON,ioos:station:SCCF:16:1,2019-04-13T21:15:00Z,26.4345,-81.9647,1012.5,1111122 
SCCF RECON,ioos:station:SCCF:16:1,2019-04-13T22:15:00Z,26.4345,-81.9647,1012.5,1111122 
SCCF RECON,ioos:station:SCCF:16:1,2019-04-14T04:15:00Z,26.4345,-81.9647,1013.2,1111122 
SCCF RECON,ioos:station:SCCF:16:1,2019-04-14T05:15:00Z,26.4345,-81.9647,1012.9,1111122 
SCCF RECON,ioos:station:SCCF:16:1,2019-04-14T06:15:00Z,26.4345,-81.9647,1012.5,1111122 
SCCF RECON,ioos:station:SCCF:16:1,2019-04-14T07:15:00Z,26.4345,-81.9647,1012.0,1111122 
SCCF RECON,ioos:station:SCCF:16:1,2019-04-14T08:15:00Z,26.4345,-81.9647,1011.9,1111122 
SCCF RECON,ioos:station:SCCF:16:1,2019-04-14T09:15:00Z,26.4345,-81.9647,1011.9,1111122 
SCCF RECON,ioos:station:SCCF:16:1,2019-04-14T10:15:00Z,26.4345,-81.9647,1012.0,1111122 
SCCF RECON,ioos:station:SCCF:16:1,2019-04-14T11:15:00Z,26.4345,-81.9647,1012.2,1111122 
SCCF RECON,ioos:station:SCCF:16:1,2019-04-14T12:15:00Z,26.4345,-81.9647,1012.2,1111122 
SCCF RECON,ioos:station:SCCF:16:1,2019-04-14T13:15:00Z,26.4345,-81.9647,1012.0,1111122 
SCCF RECON,ioos:station:SCCF:16:1,2019-04-14T14:15:00Z,26.4345,-81.9647,1012.6,1111122 
SCCF RECON,ioos:station:SCCF:16:1,2019-04-14T15:15:00Z,26.4345,-81.9647,1013.7,1111122 
SCCF RECON,ioos:station:SCCF:16:1,2019-04-14T16:15:00Z,26.4345,-81.9647,1013.8,1111122 
SCCF RECON,ioos:station:SCCF:16:1,2019-04-14T17:15:00Z,26.4345,-81.9647,1013.5,1111122 
SCCF RECON,ioos:station:SCCF:16:1,2019-04-14T18:15:00Z,26.4345,-81.9647,1013.0,1111122 
SCCF RECON,ioos:station:SCCF:16:1,2019-04-14T19:15:00Z,26.4345,-81.9647,1012.3,1111122 
SCCF RECON,ioos:station:SCCF:16:1,2019-04-14T20:15:00Z,26.4345,-81.9647,1011.9,1111122 
SCCF RECON,ioos:station:SCCF:16:1,2019-04-14T21:15:00Z,26.4345,-81.9647,1011.4,1111122 
SCCF RECON,ioos:station:SCCF:16:1,2019-04-14T22:15:00Z,26.4345,-81.9647,1011.0,1111122 
SCCF RECON,ioos:station:SCCF:16:1,2019-04-15T04:15:00Z,26.4345,-81.9647,1013.3,1111122 
SCCF RECON,ioos:station:SCCF:16:1,2019-04-15T05:15:00Z,26.4345,-81.9647,1013.5,1111122 
SCCF RECON,ioos:station:SCCF:16:1,2019-04-15T06:15:00Z,26.4345,-81.9647,1012.9,1111122 
SCCF RECON,ioos:station:SCCF:16:1,2019-04-15T07:15:00Z,26.4345,-81.9647,1012.5,1111122 
SCCF RECON,ioos:station:SCCF:16:1,2019-04-15T08:15:00Z,26.4345,-81.9647,1012.4,1111122 
SCCF RECON,ioos:station:SCCF:16:1,2019-04-15T09:15:00Z,26.4345,-81.9647,1012.6,1111122 
SCCF RECON,ioos:station:SCCF:16:1,2019-04-15T10:15:00Z,26.4345,-81.9647,1013.4,1111122 